Change the Weather History Date:

Monday, November 26, 2012

  Actual Average Record
Temperature  
Mean Temperature 82 °F -  
Max Temperature 91 °F - - ()
Min Temperature 74 °F - - ()
Cooling Degree Days 18    
Growing Degree Days 32 (Base 50)    
Moisture  
Dew Point 74 °F    
Average Humidity 79    
Maximum Humidity 94    
Minimum Humidity 54    
Precipitation  
Precipitation 0.08 in - - ()
Sea Level Pressure  
Sea Level Pressure 29.81 in    
Wind  
Wind Speed 2 mph ()    
Max Wind Speed 13 mph    
Max Gust Speed -    
Visibility 5.1 miles    
Events Rain , Thunderstorm    
T = Trace of Precipitation, MM = Missing Value Source: Averaged Metar Reports

Daily Weather History Graph

Daily Weather History Graph

Search for Another Location

Airport or City:

Trip Planner

Search our weather history database for the weather conditions in past years. The results will help you decide how hot, cold, wet, or windy it might be!

Date:

Astronomy

Nov. 26, 2012 Rise Set
Actual Time 6:14 AM WIB 6:10 PM WIB
Civil Twilight 5:52 AM WIB 6:33 PM WIB
Nautical Twilight 5:26 AM WIB 6:58 PM WIB
Astronomical Twilight 5:00 AM WIB 7:24 PM WIB
Moon 4:29 PM WIB (11/26) 4:14 AM WIB (11/26)
Length of Visible Light 12h 40m
Length of Day
11h 56m
Waxing Gibbous, 95% of the Moon is Illuminated
Nov 26
Waxing Gibbous
Nov 28
Full
Dec 6
Last Quarter
Dec 13
New
Dec 20
First Quarter

Hourly Weather History & Observations

Time (WIB) Temp. Heat Index Dew Point Humidity Pressure Visibility Wind Dir Wind Speed Gust Speed Precip Events Conditions
12:00 AM 77.0 °F - 73.4 °F 89% 29.86 in 5.6 mi Calm Calm - N/A   Scattered Clouds
1:00 AM 77 °F - 74 °F 87% 29.84 in 6 mi Calm Calm - -   Partly Cloudy
1:00 AM 77.0 °F - 73.4 °F 89% 29.83 in 6.2 mi Calm Calm - N/A   Scattered Clouds
1:30 AM 77.0 °F - 73.4 °F 89% 29.83 in 6.2 mi Calm Calm - N/A   Scattered Clouds
2:00 AM 77.0 °F - 73.4 °F 89% 29.80 in 6.2 mi Calm Calm - N/A   Scattered Clouds
3:00 AM 77.0 °F - 73.4 °F 89% 29.77 in 6.2 mi Calm Calm - N/A   Scattered Clouds
3:30 AM 77.0 °F - 73.4 °F 89% 29.77 in 6.2 mi Calm Calm - N/A   Scattered Clouds
4:00 AM 76 °F - 74 °F 90% 29.79 in 6 mi Calm Calm - -   Partly Cloudy
4:00 AM 77.0 °F - 73.4 °F 89% 29.77 in 6.2 mi Calm Calm - N/A   Scattered Clouds
4:30 AM 77.0 °F - 73.4 °F 89% 29.77 in 6.2 mi Calm Calm - N/A   Scattered Clouds
5:00 AM 75.2 °F - 73.4 °F 94% 29.77 in 6.2 mi Calm Calm - N/A   Scattered Clouds
5:30 AM 75.2 °F - 73.4 °F 94% 29.80 in 6.2 mi Calm Calm - N/A   Scattered Clouds
6:00 AM 75.2 °F - 73.4 °F 94% 29.80 in 6.2 mi Calm Calm - N/A   Scattered Clouds
6:30 AM 75.2 °F - 73.4 °F 94% 29.80 in 6.2 mi Calm Calm - N/A   Scattered Clouds
7:00 AM 75 °F - 73 °F 91% 29.83 in 6 mi Calm Calm - -   Scattered Clouds
7:00 AM 75.2 °F - 73.4 °F 94% 29.80 in 6.2 mi Calm Calm - N/A   Scattered Clouds
7:30 AM 77.0 °F - 73.4 °F 89% 29.83 in 6.2 mi Calm Calm - N/A   Partly Cloudy
8:00 AM 80.6 °F 85.4 °F 73.4 °F 79% 29.83 in 6.2 mi WSW 3.5 mph - N/A   Partly Cloudy
8:30 AM 82.4 °F 88.2 °F 73.4 °F 74% 29.86 in 6.2 mi West 3.5 mph - N/A   Partly Cloudy
9:00 AM 86.0 °F 93.4 °F 73.4 °F 66% 29.86 in 6.2 mi WNW 5.8 mph - N/A   Partly Cloudy
9:30 AM 86.0 °F 93.4 °F 73.4 °F 66% 29.86 in 6.2 mi West 5.8 mph - N/A   Scattered Clouds
10:00 AM 86 °F - 74 °F 61% 29.87 in 6 mi West 5.8 mph - -   Mostly Cloudy
10:00 AM 86.0 °F 93.4 °F 73.4 °F 66% 29.86 in 6.2 mi West 5.8 mph - N/A   Mostly Cloudy
10:30 AM 87.8 °F 95.6 °F 73.4 °F 62% 29.86 in 6.2 mi NNW 5.8 mph - N/A   Mostly Cloudy
11:00 AM 87.8 °F 95.6 °F 73.4 °F 62% 29.86 in 6.2 mi NNW 5.8 mph - N/A   Mostly Cloudy
11:30 AM 89.6 °F 98.2 °F 73.4 °F 59% 29.83 in 6.2 mi NNW 6.9 mph - N/A   Mostly Cloudy
12:00 PM 89.6 °F 98.2 °F 73.4 °F 59% 29.80 in 6.2 mi NNW 4.6 mph - N/A   Mostly Cloudy
12:30 PM 89.6 °F 98.2 °F 73.4 °F 59% 29.80 in 6.2 mi NNW 6.9 mph - N/A   Mostly Cloudy
1:00 PM 89 °F - 75 °F 54% 29.81 in 6 mi North 6.9 mph - -   Mostly Cloudy
1:00 PM 89.6 °F 99.8 °F 75.2 °F 62% 29.80 in 6.2 mi North 6.9 mph - N/A   Mostly Cloudy
1:30 PM 89.6 °F 99.8 °F 75.2 °F 62% 29.77 in 6.2 mi North 5.8 mph - N/A   Mostly Cloudy
2:00 PM 89.6 °F 98.2 °F 73.4 °F 59% 29.77 in 6.2 mi NNW 5.8 mph - N/A   Mostly Cloudy
2:30 PM 89.6 °F 99.8 °F 75.2 °F 62% 29.74 in 6.2 mi NW 9.2 mph - N/A   Mostly Cloudy
3:00 PM 87.8 °F 95.6 °F 73.4 °F 62% 29.74 in 5.0 mi NNW 5.8 mph - N/A   Scattered Clouds
3:30 PM 87.8 °F 95.6 °F 73.4 °F 62% 29.71 in 5.0 mi NNW 11.5 mph - N/A   Scattered Clouds
4:00 PM 86 °F - 73 °F 58% 29.73 in 4 mi NNW 6.9 mph - -   Mostly Cloudy
4:00 PM 86.0 °F 93.4 °F 73.4 °F 66% 29.71 in 3.7 mi NNW 6.9 mph - N/A   Scattered Clouds
4:30 PM 86.0 °F 93.4 °F 73.4 °F 66% 29.74 in 3.7 mi NW 5.8 mph - N/A   Mostly Cloudy
5:00 PM 82.4 °F 89.5 °F 75.2 °F 79% 29.77 in 3.7 mi WSW 8.1 mph - N/A Thunderstorm Light Thunderstorm
5:30 PM 82.4 °F 88.2 °F 73.4 °F 74% 29.77 in 3.1 mi SSW 5.8 mph - N/A Rain , Thunderstorm Thunderstorms and Rain
6:00 PM 80.6 °F 87.1 °F 77.0 °F 89% 29.77 in 1.9 mi SSW 6.9 mph - N/A Rain Light Rain
6:30 PM 78.8 °F - 77.0 °F 94% 29.77 in 2.5 mi SSW 12.7 mph - N/A Rain Light Rain
7:00 PM 80 °F - 75 °F 82% 29.81 in 3 mi SSW 12.7 mph - - Rain Light Rain
7:00 PM 78.8 °F - 75.2 °F 89% 29.80 in 3.1 mi SSW 12.7 mph - N/A Rain Light Rain
7:30 PM 78.8 °F - 75.2 °F 89% 29.83 in 3.1 mi Calm Calm - N/A Rain Light Rain
8:00 PM 78.8 °F - 75.2 °F 89% 29.83 in 3.7 mi Calm Calm - N/A Rain Light Rain
8:30 PM 78.8 °F - 75.2 °F 89% 29.86 in 3.7 mi Calm Calm - N/A Rain Light Rain
9:00 PM 78.8 °F - 75.2 °F 89% 29.86 in 3.7 mi South 4.6 mph - N/A Rain Light Rain
9:30 PM 78.8 °F - 75.2 °F 89% 29.86 in 3.7 mi Calm Calm - N/A Rain Light Rain
10:00 PM 78 °F - 75 °F 89% 29.88 in 4 mi Calm Calm - - Rain Light Rain
10:00 PM 78.8 °F - 75.2 °F 89% 29.86 in 3.7 mi Calm Calm - N/A Rain Light Rain
10:30 PM 78.8 °F - 75.2 °F 89% 29.86 in 3.7 mi Calm Calm - N/A Rain Light Rain
11:00 PM 78.8 °F - 75.2 °F 89% 29.89 in 3.1 mi West 8.1 mph - N/A Rain Light Rain
11:30 PM 78.8 °F - 75.2 °F 89% 29.89 in 3.1 mi West 5.8 mph - N/A Rain Light Rain